| time (UTC) | temp F | wind direction | speed knots | gust knots | rain 1hr in | rain 24hr in | rain mn in | humidity % | barometer mb |
| 20260905174526 | 89 | 205 | 6.1 | 8.7 | 0.00 | 0.00 | 0.00 | 58 | 1014.7 |
| 20260905173526 | 89 | 190 | 5.2 | 7.8 | 0.00 | 0.00 | 0.00 | 59 | 1014.8 |
| 20260905172547 | 89 | 203 | 5.2 | 8.7 | 0.00 | 0.00 | 0.00 | 58 | 1015.0 |
| 20260905171526 | 88 | 205 | 4.3 | 7.0 | 0.00 | 0.00 | 0.00 | 58 | 1015.2 |
| 20260905170526 | 89 | 218 | 3.5 | 6.1 | 0.00 | 0.00 | 0.00 | 57 | 1015.4 |
| 20260905165526 | 88 | 207 | 2.6 | 4.3 | 0.00 | 0.00 | 0.00 | 58 | 1015.7 |
| 20260905164526 | 87 | 167 | 4.3 | 7.0 | 0.00 | 0.00 | 0.00 | 58 | 1015.7 |
| 20260905163607 | 87 | 239 | 2.6 | 7.0 | 0.00 | 0.00 | 0.00 | 58 | 1015.9 |
| 20260905162526 | 85 | 217 | 5.2 | 7.8 | 0.00 | 0.00 | 0.00 | 60 | 1015.8 |
| 20260905161526 | 86 | 188 | 5.2 | 7.0 | 0.00 | 0.00 | 0.00 | 60 | 1015.9 |
| 20260905160528 | 86 | 216 | 4.3 | 7.0 | 0.00 | 0.00 | 0.00 | 60 | 1015.8 |
| 20260905155526 | 86 | 186 | 3.5 | 5.2 | 0.00 | 0.00 | 0.00 | 59 | 1015.8 |
| 20260905154607 | 86 | 180 | 4.3 | 7.0 | 0.00 | 0.00 | 0.00 | 59 | 1015.7 |
| 20260905153526 | 86 | 195 | 3.5 | 5.2 | 0.00 | 0.00 | 0.00 | 58 | 1015.8 |
| 20260905152526 | 84 | 174 | 1.7 | 4.3 | 0.00 | 0.00 | 0.00 | 60 | 1015.7 |
| 20260905151527 | 84 | 194 | 5.2 | 7.8 | 0.00 | 0.00 | 0.00 | 61 | 1015.7 |
| 20260905150526 | 84 | 167 | 3.5 | 5.2 | 0.00 | 0.00 | 0.00 | 60 | 1015.7 |
| 20260905145526 | 83 | 126 | 3.5 | 5.2 | 0.00 | 0.00 | 0.00 | 61 | 1015.7 |
| 20260905144547 | 82 | 140 | 3.5 | 7.8 | 0.00 | 0.00 | 0.00 | 62 | 1015.7 |
| 20260905143527 | 81 | 141 | 5.2 | 7.8 | 0.00 | 0.00 | 0.00 | 63 | 1015.7 |
| 20260905142708 | 81 | 119 | 4.3 | 8.7 | 0.00 | 0.00 | 0.00 | 63 | 1015.8 |
| 20260905141527 | 80 | 99 | 5.2 | 7.8 | 0.00 | 0.00 | 0.00 | 67 | 1015.9 |
| 20260905140526 | 79 | 118 | 3.5 | 7.0 | 0.00 | 0.00 | 0.00 | 69 | 1016.1 |
| 20260905135526 | 78 | 115 | 6.1 | 8.7 | 0.00 | 0.00 | 0.00 | 70 | 1016.1 |
| 20260905134526 | 78 | 87 | 4.3 | 7.8 | 0.00 | 0.00 | 0.00 | 70 | 1016.4 |
| 20260905133547 | 77 | 125 | 4.3 | 7.0 | 0.00 | 0.00 | 0.00 | 73 | 1016.6 |
| 20260905132527 | 76 | 100 | 4.3 | 7.0 | 0.00 | 0.00 | 0.00 | 74 | 1016.8 |
| 20260905131547 | 75 | 103 | 4.3 | 7.8 | 0.00 | 0.00 | 0.00 | 77 | 1016.6 |
| 20260905130527 | 75 | 111 | 5.2 | 7.8 | 0.00 | 0.00 | 0.00 | 79 | 1016.7 |
| 20260905125527 | 73 | 90 | 4.3 | 7.0 | 0.00 | 0.00 | 0.00 | 82 | 1016.8 |
| 20260905124527 | 72 | 109 | 3.5 | 6.1 | 0.00 | 0.00 | 0.00 | 83 | 1016.7 |
| 20260905123527 | 72 | 99 | 5.2 | 7.0 | 0.00 | 0.00 | 0.00 | 83 | 1016.9 |
| 20260905122527 | 72 | 58 | 3.5 | 5.2 | 0.00 | 0.00 | 0.00 | 84 | 1017.0 |
| 20260905121547 | 71 | 77 | 5.2 | 7.8 | 0.00 | 0.00 | 0.00 | 85 | 1016.8 |
| 20260905120527 | 71 | 69 | 4.3 | 6.1 | 0.00 | 0.00 | 0.00 | 85 | 1016.7 |
| 20260905115527 | 71 | 90 | 5.2 | 7.8 | 0.00 | 0.00 | 0.00 | 84 | 1016.8 |
| 20260905114547 | 72 | 76 | 5.2 | 7.8 | 0.00 | 0.00 | 0.00 | 83 | 1016.7 |
| 20260905113527 | 72 | 73 | 5.2 | 7.8 | 0.00 | 0.00 | 0.00 | 83 | 1016.7 |
| 20260905112547 | 72 | 58 | 3.5 | 5.2 | 0.00 | 0.00 | 0.00 | 83 | 1016.7 |
| 20260905111527 | 72 | 32 | 7.8 | 10.4 | 0.00 | 0.00 | 0.00 | 83 | 1016.6 |
| 20260905110547 | 73 | 14 | 6.1 | 8.7 | 0.00 | 0.00 | 0.00 | 84 | 1016.4 |
| 20260905105547 | 73 | 21 | 11.3 | 16.5 | 0.00 | 0.00 | 0.00 | 84 | 1016.2 |
| 20260905104547 | 73 | 22 | 14.8 | 23.5 | 0.00 | 0.00 | 0.00 | 92 | 1015.8 |
| 20260905103547 | 72 | 11 | 4.3 | 14.8 | 0.00 | 0.00 | 0.00 | 99 | 1015.1 |
| 20260905102527 | 71 | 0.0 | 0.0 | 0.00 | 0.00 | 0.00 | 99 | 1014.8 | |
| 20260905101527 | 71 | 0.0 | 0.0 | 0.00 | 0.00 | 0.00 | 99 | 1014.8 | |
| 20260905100547 | 71 | 0.0 | 0.0 | 0.00 | 0.00 | 0.00 | 99 | 1014.9 | |
| 20260905095528 | 71 | 0.0 | 0.0 | 0.00 | 0.00 | 0.00 | 99 | 1014.9 | |
| 20260905094527 | 71 | 0.0 | 0.0 | 0.00 | 0.00 | 0.00 | 99 | 1014.9 | |
| 20260905093527 | 72 | 0.0 | 0.0 | 0.00 | 0.00 | 0.00 | 99 | 1014.7 | |
| 20260905092527 | 72 | 0.0 | 0.0 | 0.00 | 0.00 | 0.00 | 99 | 1014.7 | |
| 20260905091607 | 72 | 0.0 | 0.0 | 0.00 | 0.00 | 0.00 | 99 | 1014.5 | |
| 20260905090527 | 72 | 0.0 | 0.0 | 0.00 | 0.00 | 0.00 | 99 | 1014.5 | |
| 20260905085527 | 72 | 0.0 | 0.0 | 0.00 | 0.00 | 0.00 | 99 | 1014.5 | |
| 20260905084527 | 72 | 0.0 | 0.0 | 0.00 | 0.00 | 0.00 | 99 | 1014.6 | |
| 20260905083527 | 72 | 0.0 | 0.0 | 0.00 | 0.00 | 0.00 | 99 | 1014.5 | |
| 20260905082527 | 72 | 0.0 | 0.0 | 0.00 | 0.00 | 0.00 | 99 | 1014.5 | |
| 20260905081548 | 72 | 0.0 | 0.0 | 0.00 | 0.00 | 0.00 | 98 | 1014.3 | |
| 20260905080527 | 72 | 0.0 | 0.0 | 0.00 | 0.00 | 0.00 | 98 | 1014.2 | |
| 20260905075528 | 72 | 0.0 | 0.0 | 0.00 | 0.00 | 0.00 | 98 | 1014.0 | |
| 20260905074527 | 72 | 0.0 | 0.0 | 0.00 | 0.00 | 0.00 | 98 | 1013.9 | |
| 20260905073527 | 72 | 0.0 | 0.0 | 0.00 | 0.00 | 0.00 | 98 | 1013.9 | |
| 20260905072527 | 72 | 0.0 | 0.0 | 0.00 | 0.00 | 0.00 | 98 | 1013.9 | |
| 20260905071527 | 72 | 0.0 | 0.0 | 0.00 | 0.00 | 0.00 | 98 | 1014.0 | |
| 20260905070527 | 72 | 0.0 | 0.0 | 0.00 | 0.00 | 0.00 | 98 | 1014.2 | |
| 20260905065548 | 72 | 0.0 | 0.0 | 0.00 | 0.00 | 0.00 | 98 | 1014.4 | |
| 20260905064527 | 72 | 0.0 | 0.0 | 0.00 | 0.00 | 0.00 | 98 | 1014.5 | |
| 20260905063528 | 72 | 0.0 | 0.0 | 0.00 | 0.00 | 0.00 | 98 | 1014.6 | |
| 20260905062527 | 72 | 0.0 | 0.0 | 0.00 | 0.00 | 0.00 | 98 | 1014.7 | |
| 20260905061528 | 72 | 0.0 | 0.0 | 0.00 | 0.00 | 0.00 | 98 | 1014.8 | |
| 20260905060548 | 72 | 0.0 | 0.0 | 0.00 | 0.00 | 0.00 | 98 | 1014.9 | |
| 20260905055528 | 72 | 0.0 | 0.0 | 0.00 | 0.00 | 0.00 | 98 | 1015.0 | |
| 20260905054528 | 72 | 0.0 | 0.0 | 0.00 | 0.00 | 0.00 | 98 | 1015.0 | |
| 20260905053528 | 73 | 0.0 | 0.0 | 0.00 | 0.00 | 0.00 | 98 | 1015.1 | |
| 20260905052548 | 73 | 0.0 | 0.0 | 0.00 | 0.00 | 0.00 | 97 | 1015.3 | |
| 20260905051528 | 73 | 0.0 | 0.0 | 0.00 | 0.00 | 0.00 | 97 | 1015.4 | |
| 20260905050528 | 73 | 0.0 | 0.0 | 0.00 | 0.00 | 0.00 | 97 | 1015.5 | |
| 20260905045528 | 73 | 0.0 | 0.0 | 0.00 | 0.00 | 0.00 | 97 | 1015.5 | |
| 20260905044549 | 73 | 0.0 | 0.0 | 0.00 | 0.00 | 0.00 | 97 | 1015.6 | |
| 20260905043528 | 73 | 0.0 | 0.0 | 0.00 | 0.00 | 0.00 | 96 | 1015.6 | |
| 20260905042528 | 73 | 0.0 | 0.0 | 0.00 | 0.00 | 0.00 | 96 | 1015.6 | |
| 20260905041528 | 73 | 0.0 | 0.0 | 0.00 | 0.00 | 0.00 | 96 | 1015.5 | |
| 20260905040528 | 74 | 0.0 | 0.0 | 0.00 | 0.00 | 0.00 | 96 | 1015.6 | |
| 20260905035549 | 74 | 0.0 | 0.0 | 0.00 | 0.00 | 0.00 | 95 | 1015.6 | |
| 20260905034528 | 74 | 0.0 | 0.0 | 0.00 | 0.00 | 0.00 | 95 | 1015.6 | |
| 20260905033528 | 74 | 0.0 | 0.0 | 0.00 | 0.00 | 0.00 | 95 | 1015.6 | |
| 20260905032528 | 74 | 0.0 | 0.0 | 0.00 | 0.00 | 0.00 | 95 | 1015.6 | |
| 20260905031548 | 74 | 0.0 | 0.0 | 0.00 | 0.00 | 0.00 | 94 | 1015.5 | |
| 20260905030528 | 75 | 0.0 | 0.0 | 0.00 | 0.00 | 0.00 | 94 | 1015.5 | |
| 20260905025548 | 75 | 0.0 | 0.0 | 0.00 | 0.00 | 0.00 | 94 | 1015.5 | |
| 20260905024528 | 75 | 0.0 | 0.0 | 0.00 | 0.00 | 0.00 | 93 | 1015.6 | |
| 20260905023528 | 75 | 0.0 | 0.0 | 0.00 | 0.00 | 0.00 | 93 | 1015.6 | |
| 20260905022528 | 75 | 0.0 | 0.0 | 0.00 | 0.00 | 0.00 | 93 | 1015.6 | |
| 20260905021528 | 76 | 0.0 | 0.0 | 0.00 | 0.00 | 0.00 | 92 | 1015.5 | |
| 20260905020528 | 76 | 0.0 | 0.0 | 0.00 | 0.00 | 0.00 | 91 | 1015.5 | |
| 20260905015528 | 76 | 0.0 | 0.0 | 0.00 | 0.00 | 0.00 | 90 | 1015.4 | |
| 20260905014528 | 77 | 0.0 | 0.0 | 0.00 | 0.00 | 0.00 | 90 | 1015.3 | |
| 20260905013528 | 77 | 0.0 | 0.0 | 0.00 | 0.00 | 0.00 | 90 | 1015.2 | |
| 20260905012528 | 77 | 0.0 | 0.0 | 0.00 | 0.00 | 0.00 | 88 | 1015.1 | |
| 20260905011528 | 78 | 0.0 | 0.0 | 0.00 | 0.00 | 0.00 | 87 | 1015.1 | |
| 20260905010528 | 78 | 0.0 | 0.0 | 0.00 | 0.00 | 0.00 | 86 | 1015.1 | |
| 20260905005528 | 79 | 0.0 | 0.0 | 0.00 | 0.00 | 0.00 | 86 | 1015.1 | |
| 20260905004528 | 79 | 7 | 0.9 | 2.6 | 0.00 | 0.00 | 0.00 | 85 | 1015.1 |
| 20260905003528 | 80 | 356 | 1.7 | 2.6 | 0.00 | 0.00 | 0.00 | 84 | 1014.9 |
| 20260905002548 | 80 | 8 | 1.7 | 2.6 | 0.00 | 0.00 | 0.00 | 84 | 1014.9 |
| 20260905001529 | 81 | 8 | 2.6 | 3.5 | 0.00 | 0.00 | 0.00 | 82 | 1015.0 |
| 20260905000549 | 82 | 11 | 2.6 | 3.5 | 0.00 | 0.00 | 0.00 | 81 | 1014.9 |
| 20260904235548 | 82 | 8 | 2.6 | 3.5 | 0.00 | 0.00 | 0.00 | 80 | 1014.8 |
| 20260904234528 | 83 | 7 | 1.7 | 2.6 | 0.00 | 0.00 | 0.00 | 79 | 1014.7 |
| 20260904233548 | 84 | 354 | 0.0 | 0.9 | 0.00 | 0.00 | 0.00 | 77 | 1014.5 |
| 20260904232518 | 85 | 14 | 0.0 | 1.7 | 0.00 | 0.00 | 0.00 | 75 | 1014.5 |
| 20260904231518 | 86 | 7 | 1.7 | 3.5 | 0.00 | 0.00 | 0.00 | 72 | 1014.6 |
| 20260904230518 | 87 | 34 | 2.6 | 3.5 | 0.00 | 0.00 | 0.00 | 70 | 1014.7 |
| 20260904225519 | 87 | 26 | 2.6 | 4.3 | 0.00 | 0.00 | 0.00 | 70 | 1014.7 |
| 20260904224519 | 88 | 25 | 3.5 | 5.2 | 0.00 | 0.00 | 0.00 | 68 | 1014.8 |
| 20260904223518 | 90 | 71 | 4.3 | 6.1 | 0.00 | 0.00 | 0.00 | 66 | 1014.8 |
| 20260904222548 | 90 | 43 | 3.5 | 3.5 | 0.00 | 0.00 | 0.00 | 65 | 1014.6 |
| 20260904221629 | 90 | 62 | 4.3 | 5.2 | 0.00 | 0.00 | 0.00 | 65 | 1014.7 |
| 20260904220529 | 96 | 77 | 4.3 | 6.1 | 0.00 | 0.00 | 0.00 | 57 | 1014.9 |
| 20260904215519 | 97 | 225 | 1.7 | 2.6 | 0.00 | 0.00 | 0.00 | 55 | 1015.0 |
| 20260904214519 | 98 | 214 | 3.5 | 4.3 | 0.00 | 0.00 | 0.00 | 52 | 1014.9 |
| 20260904213519 | 99 | 254 | 2.6 | 3.5 | 0.00 | 0.00 | 0.00 | 50 | 1015.1 |
| 20260904212519 | 98 | 282 | 1.7 | 2.6 | 0.00 | 0.00 | 0.00 | 51 | 1015.1 |
| 20260904211519 | 98 | 329 | 1.7 | 4.3 | 0.00 | 0.00 | 0.00 | 50 | 1015.2 |
| 20260904210519 | 98 | 242 | 1.7 | 4.3 | 0.00 | 0.00 | 0.00 | 52 | 1015.4 |
| 20260904205519 | 98 | 258 | 1.7 | 3.5 | 0.00 | 0.00 | 0.00 | 51 | 1015.4 |
| 20260904204519 | 98 | 232 | 2.6 | 6.1 | 0.00 | 0.00 | 0.00 | 52 | 1015.4 |
| 20260904203519 | 98 | 250 | 3.5 | 6.1 | 0.00 | 0.00 | 0.00 | 51 | 1015.3 |
| 20260904202519 | 98 | 224 | 2.6 | 5.2 | 0.00 | 0.00 | 0.00 | 53 | 1015.5 |
| 20260904201519 | 98 | 230 | 3.5 | 6.1 | 0.00 | 0.00 | 0.00 | 51 | 1015.7 |
| 20260904200519 | 97 | 222 | 3.5 | 6.1 | 0.00 | 0.00 | 0.00 | 52 | 1015.7 |
| 20260904195600 | 97 | 232 | 4.3 | 7.0 | 0.00 | 0.00 | 0.00 | 51 | 1015.7 |
| 20260904194539 | 97 | 237 | 4.3 | 8.7 | 0.00 | 0.00 | 0.00 | 51 | 1015.7 |
| 20260904193519 | 97 | 267 | 2.6 | 9.6 | 0.00 | 0.00 | 0.00 | 51 | 1015.9 |
| 20260904192519 | 98 | 227 | 4.3 | 6.1 | 0.00 | 0.00 | 0.00 | 52 | 1016.1 |
| 20260904191519 | 97 | 325 | 2.6 | 3.5 | 0.00 | 0.00 | 0.00 | 53 | 1016.2 |
| 20260904190519 | 97 | 225 | 4.3 | 7.0 | 0.00 | 0.00 | 0.00 | 53 | 1016.2 |
| 20260904185559 | 97 | 226 | 3.5 | 6.1 | 0.00 | 0.00 | 0.00 | 53 | 1016.5 |
| 20260904184519 | 98 | 220 | 4.3 | 7.8 | 0.00 | 0.00 | 0.00 | 54 | 1016.6 |
| 20260904183519 | 97 | 253 | 3.5 | 7.8 | 0.00 | 0.00 | 0.00 | 53 | 1016.8 |
| 20260904182519 | 97 | 214 | 3.5 | 6.1 | 0.00 | 0.00 | 0.00 | 57 | 1016.9 |
| 20260904181519 | 97 | 227 | 2.6 | 6.1 | 0.00 | 0.00 | 0.00 | 54 | 1017.0 |
| 20260904180519 | 95 | 218 | 2.6 | 7.8 | 0.00 | 0.00 | 0.00 | 55 | 1017.2 |
| 20260904175518 | 96 | 231 | 4.3 | 7.0 | 0.00 | 0.00 | 0.00 | 54 | 1017.3 |